This is the latest recevied weather packets stored in our database for station/object R2AKT-13. If no packets are shown the sender has not sent any weather packets the latest 10 day(s).
| Time | Temp. | Humidity | Pressure | Rain* | Wind** | Luminosity | Snow |
|---|---|---|---|---|---|---|---|
| 1788692966 | 13.33° C | 82% | 979.2 hPa | - | 0.89 m/s, 267° | - | - |
| 1788692381 | 12.78° C | 84% | 979.3 hPa | - | 0 m/s | - | - |
| 1788691881 | 12.22° C | 84% | 979.1 hPa | - | 0 m/s | - | - |
| 1788691351 | 12.22° C | 84% | 979 hPa | - | 0.45 m/s, 137° | - | - |
| 1788690796 | 12.22° C | 85% | 979 hPa | - | 0.45 m/s, 122° | - | - |
| 1788690306 | 12.22° C | 85% | 979 hPa | - | 0.89 m/s, 263° | - | - |
| 1788689786 | 12.22° C | 83% | 978.8 hPa | - | 0.89 m/s, 265° | - | - |
| 1788689276 | 14.44° C | 73% | 978.6 hPa | - | 1.79 m/s, 267° | - | - |
| 1788688706 | 15° C | 70% | 978.4 hPa | - | 0.89 m/s, 194° | - | - |
| 1788688176 | 15° C | 72% | 978.3 hPa | - | 0.45 m/s, 243° | - | - |
| 1788687576 | 15° C | 72% | 978.2 hPa | - | 0.45 m/s, 265° | - | - |
| 1788687034 | 15° C | 74% | 978.2 hPa | - | 0 m/s | - | - |
| 1788686441 | 14.44° C | 76% | 978.2 hPa | - | 0.89 m/s, 152° | - | - |
| 1788685936 | 13.89° C | 76% | 978.2 hPa | - | 1.34 m/s, 273° | - | - |
| 1788685341 | 15° C | 75% | 978 hPa | - | 0.45 m/s, 138° | - | - |
| 1788684851 | 13.89° C | 77% | 977.8 hPa | - | 0.89 m/s, 253° | - | - |
| 1788684366 | 13.33° C | 81% | 977.9 hPa | - | 0.45 m/s, 219° | - | - |
| 1788683841 | 13.33° C | 79% | 977.8 hPa | - | 0.89 m/s, 218° | - | - |
| 1788683251 | 13.89° C | 77% | 977.7 hPa | - | 1.79 m/s, 291° | - | - |
| 1788682666 | 15° C | 69% | 977.7 hPa | - | 0.45 m/s, 193° | - | - |
| 1788682156 | 15.56° C | 68% | 977.6 hPa | - | 0.45 m/s, 230° | - | - |
| 1788681642 | 15° C | 68% | 977.7 hPa | - | 0.89 m/s, 260° | - | - |
| 1788681081 | 14.44° C | 73% | 977.7 hPa | - | 0.45 m/s, 204° | - | - |
| 1788680521 | 13.89° C | 74% | 977.7 hPa | - | 0.89 m/s, 266° | - | - |
| 1788679996 | 14.44° C | 75% | 977.5 hPa | - | 1.34 m/s, 209° | - | - |
* Rain since midnight (hover to see other rain measurements)
** Current wind speed in m/s (hover to see current wind gust speed)